Lincoln County, Oregon, United States
Lat: 44.65N, Lon: 123.85W
Wx Zone: ORZ004
Local Info
Past Weather Observations for Yesterday

NOTE: This archive is for the closest National Weather Service station to Lincoln County. Information may differ from the station used for current weather conditions.

Click here for Long-term Archive

Time Weather Temperature Dewpoint Humidity Pressure Winds Precip Visibility
23:55
Mostly Cloudy
Fog And Mist
55°F / 13°C 54°F / 12°C 94% 29.92 in
(1013 mb)
S 11.5 mph
(S 19 kph)
- 5SM
23:35
Mostly Cloudy
Fog And Mist
55°F / 13°C 54°F / 12°C 94% 29.92 in
(1013 mb)
S 13.8 mph
(S 22 kph)
- 5SM
23:15
Mostly Cloudy
Fog And Mist
55°F / 13°C 54°F / 12°C 94% 29.92 in
(1013 mb)
S 16.1 mph
(S 26 kph)
- 5SM
22:55
Overcast
Heavy Rain
55°F / 13°C 54°F / 12°C 94% 29.92 in
(1013 mb)
S 18.4 mph
(S 30 kph)
- 4SM
22:35
Overcast
Fog And Mist
55°F / 13°C 54°F / 12°C 94% 29.92 in
(1013 mb)
S 16.1 mph
(S 26 kph)
- 5SM
22:15
Mostly Cloudy
Light Rain
55°F / 13°C 54°F / 12°C 94% 29.92 in
(1013 mb)
S 13.8 mph
(S 22 kph)
- 5SM
21:55
Partly Cloudy
55°F / 13°C 54°F / 12°C 94% 29.92 in
(1013 mb)
S 13.8 mph
(S 22 kph)
- 7SM
21:35
Mostly Cloudy
Fog And Mist
55°F / 13°C 54°F / 12°C 94% 29.89 in
(1012 mb)
S 15 mph
(S 24 kph)
- 5SM
21:15
Mostly Cloudy
55°F / 13°C 54°F / 12°C 94% 29.89 in
(1012 mb)
S 10.4 mph
(S 17 kph)
- 7SM
20:55
Mostly Cloudy
55°F / 13°C 54°F / 12°C 94% 29.89 in
(1012 mb)
S 13.8 mph
(S 22 kph)
- 7SM
20:35
Mostly Cloudy
55°F / 13°C 54°F / 12°C 94% 29.89 in
(1012 mb)
S 13.8 mph
(S 22 kph)
- 7SM
20:15
Mostly Cloudy
55°F / 13°C 54°F / 12°C 94% 29.89 in
(1012 mb)
S 13.8 mph
(S 22 kph)
- 7SM
19:55
Mostly Cloudy
55°F / 13°C 54°F / 12°C 94% 29.86 in
(1011 mb)
S 16.1 mph
(S 26 kph)
- 7SM
19:35
Overcast
Fog And Mist
55°F / 13°C 54°F / 12°C 94% 29.86 in
(1011 mb)
S 17.3 mph
(S 28 kph)
- 5SM
19:15
Overcast
Fog And Mist
55°F / 13°C 54°F / 12°C 94% 29.86 in
(1011 mb)
S 10.4 mph
(S 17 kph)
- 5SM
18:55
Mostly Cloudy
Fog And Mist
55°F / 13°C 54°F / 12°C 94% 29.86 in
(1011 mb)
S 12.7 mph
(S 20 kph)
- 5SM
18:35
Partly Cloudy
55°F / 13°C 54°F / 12°C 94% 29.86 in
(1011 mb)
S 10.4 mph
(S 17 kph)
- 7SM
18:15
Clear
55°F / 13°C 52°F / 11°C 88% 29.86 in
(1011 mb)
S 13.8 mph
(S 22 kph)
- 7SM
17:55
Clear
55°F / 13°C 54°F / 12°C 94% N/A S 13.8 mph
(S 22 kph)
- 7SM
17:35
Partly Cloudy
Fog And Mist
55°F / 13°C 54°F / 12°C 94% 29.83 in
(1010 mb)
S 16.1 mph
(S 26 kph)
- 5SM
17:15
Partly Cloudy
Fog And Mist
57°F / 14°C 54°F / 12°C 88% 29.86 in
(1011 mb)
SSE 15 mph
(SSE 24 kph)
- 4SM
16:55
Partly Cloudy
Fog And Mist
55°F / 13°C 54°F / 12°C 94% 29.83 in
(1010 mb)
S 11.5 mph
(S 19 kph)
- 5SM
16:35
Partly Cloudy
55°F / 13°C 54°F / 12°C 94% 29.83 in
(1010 mb)
S 10.4 mph
(S 17 kph)
- 7SM
16:15
Partly Cloudy
Light Rain
55°F / 13°C 54°F / 12°C 94% 29.83 in
(1010 mb)
S 10.4 mph
(S 17 kph)
- 7SM
15:55
Partly Cloudy
55°F / 13°C 54°F / 12°C 94% 29.83 in
(1010 mb)
S 13.8 mph
(S 22 kph)
- 7SM
15:35
Partly Cloudy
55°F / 13°C 54°F / 12°C 94% 29.86 in
(1011 mb)
S 11.5 mph
(S 19 kph)
- 7SM
15:15
Overcast
55°F / 13°C 54°F / 12°C 94% 29.86 in
(1011 mb)
Calm - 7SM
14:55
Overcast
Light Rain
54°F / 12°C 52°F / 11°C 94% 29.86 in
(1011 mb)
S 6.9 mph
(S 11 kph)
0.23 in
(5.84 mm)
3SM
14:35
Overcast
Rain
55°F / 13°C 54°F / 12°C 94% 29.86 in
(1011 mb)
SSW 12.7 mph
(SSW 20 kph)
0.10 in
(2.54 mm)
3SM
14:15
Mostly Cloudy
Light Rain
59°F / 15°C 54°F / 12°C 82% 29.83 in
(1010 mb)
S 18.4 mph
(S 30 kph)
- 5SM
13:55
Mostly Cloudy
Light Rain
59°F / 15°C 54°F / 12°C 82% 29.83 in
(1010 mb)
SSE 21.9 mph
(SSE 35 kph)
- 4SM
13:35
Partly Cloudy
61°F / 16°C 54°F / 12°C 77% 29.83 in
(1010 mb)
SSE 16.1 mph
(SSE 26 kph)
- 7SM
13:15
Partly Cloudy
63°F / 17°C 54°F / 12°C 73% 29.83 in
(1010 mb)
SSE 18.4 mph
(SSE 30 kph)
- 7SM
12:55
Clear
Hazy
63°F / 17°C 54°F / 12°C 73% 29.83 in
(1010 mb)
SSE 19.6 mph
(SSE 32 kph)
- 5SM
12:35
Partly Cloudy
63°F / 17°C 54°F / 12°C 73% 29.83 in
(1010 mb)
S 18.4 mph
(S 30 kph)
- 7SM
12:15
Clear
61°F / 16°C 54°F / 12°C 77% 29.83 in
(1010 mb)
S 18.4 mph
(S 30 kph)
- 7SM
11:55
Clear
63°F / 17°C 55°F / 13°C 77% 29.83 in
(1010 mb)
SSE 23 mph
(SSE 37 kph)
- 7SM
11:35
Clear
63°F / 17°C 55°F / 13°C 77% 29.83 in
(1010 mb)
S 23 mph
(S 37 kph)
- 7SM
11:15
Partly Cloudy
Hazy
63°F / 17°C 55°F / 13°C 77% 29.83 in
(1010 mb)
SSE 18.4 mph
(SSE 30 kph)
- 5SM
10:55
Partly Cloudy
Hazy
61°F / 16°C 55°F / 13°C 83% 29.83 in
(1010 mb)
SSE 19.6 mph
(SSE 32 kph)
0.01 in
(0.25 mm)
4SM
10:35
Partly Cloudy
Hazy
61°F / 16°C 55°F / 13°C 83% 29.83 in
(1010 mb)
SSE 18.4 mph
(SSE 30 kph)
0.01 in
(0.25 mm)
5SM
10:15
Partly Cloudy
Hazy
61°F / 16°C 55°F / 13°C 83% 29.83 in
(1010 mb)
SSE 17.3 mph
(SSE 28 kph)
- 5SM
09:55
Partly Cloudy
Hazy
61°F / 16°C 55°F / 13°C 83% 29.83 in
(1010 mb)
SSE 12.7 mph
(SSE 20 kph)
- 5SM
09:35
Partly Cloudy
61°F / 16°C 55°F / 13°C 83% 29.8 in
(1009 mb)
S 11.5 mph
(S 19 kph)
- 7SM
09:15
Partly Cloudy
59°F / 15°C 55°F / 13°C 88% 29.8 in
(1009 mb)
S 11.5 mph
(S 19 kph)
- 10SM
08:55
Partly Cloudy
59°F / 15°C 55°F / 13°C 88% 29.8 in
(1009 mb)
S 10.4 mph
(S 17 kph)
- 7SM
08:35
Partly Cloudy
57°F / 14°C 55°F / 13°C 94% 29.8 in
(1009 mb)
S 9.2 mph
(S 15 kph)
- 10SM
08:15
Mostly Cloudy
57°F / 14°C 54°F / 12°C 88% 29.8 in
(1009 mb)
S 10.4 mph
(S 17 kph)
- 10SM
07:55
Mostly Cloudy
57°F / 14°C 54°F / 12°C 88% 29.8 in
(1009 mb)
S 9.2 mph
(S 15 kph)
- 10SM
07:35
Mostly Cloudy
57°F / 14°C 54°F / 12°C 88% 29.77 in
(1008 mb)
S 9.2 mph
(S 15 kph)
- 10SM
07:15
Mostly Cloudy
57°F / 14°C 54°F / 12°C 88% 29.77 in
(1008 mb)
SSE 5.8 mph
(SSE 9 kph)
- 10SM
06:55
Partly Cloudy
Fog And Mist
55°F / 13°C 54°F / 12°C 94% 29.77 in
(1008 mb)
SSE 6.9 mph
(SSE 11 kph)
- 4SM
06:35
Mostly Cloudy
Fog And Mist
57°F / 14°C 55°F / 13°C 94% 29.77 in
(1008 mb)
S 10.4 mph
(S 17 kph)
- 5SM
06:15
Partly Cloudy
57°F / 14°C 55°F / 13°C 94% 29.77 in
(1008 mb)
S 9.2 mph
(S 15 kph)
- 7SM
05:55
Mostly Cloudy
57°F / 14°C 55°F / 13°C 94% 29.77 in
(1008 mb)
S 8.1 mph
(S 13 kph)
- 10SM
05:35
Mostly Cloudy
57°F / 14°C 55°F / 13°C 94% 29.77 in
(1008 mb)
S 8.1 mph
(S 13 kph)
- 10SM
05:15
Mostly Cloudy
57°F / 14°C 55°F / 13°C 94% 29.77 in
(1008 mb)
S 8.1 mph
(S 13 kph)
- 10SM
04:55
Partly Cloudy
55°F / 13°C 54°F / 12°C 94% 29.77 in
(1008 mb)
SSE 8.1 mph
(SSE 13 kph)
- 10SM
04:35
Clear
55°F / 13°C 54°F / 12°C 94% 29.77 in
(1008 mb)
SSE 8.1 mph
(SSE 13 kph)
- 7SM
04:15
Partly Cloudy
55°F / 13°C 54°F / 12°C 94% 29.77 in
(1008 mb)
S 9.2 mph
(S 15 kph)
- 10SM
03:55
Mostly Cloudy
55°F / 13°C 55°F / 13°C 100% 29.77 in
(1008 mb)
S 8.1 mph
(S 13 kph)
- 10SM
03:35
Partly Cloudy
55°F / 13°C 54°F / 12°C 94% 29.77 in
(1008 mb)
S 5.8 mph
(S 9 kph)
- 10SM
03:15
Partly Cloudy
55°F / 13°C 54°F / 12°C 94% 29.77 in
(1008 mb)
S 5.8 mph
(S 9 kph)
- 10SM
02:55
Mostly Cloudy
55°F / 13°C 55°F / 13°C 100% 29.77 in
(1008 mb)
S 5.8 mph
(S 9 kph)
- 10SM
02:35
Partly Cloudy
Rain
55°F / 13°C 54°F / 12°C 94% 29.77 in
(1008 mb)
S 5.8 mph
(S 9 kph)
- 10SM
02:15
Partly Cloudy
Drizzle
55°F / 13°C 55°F / 13°C 100% 29.77 in
(1008 mb)
SSE 5.8 mph
(SSE 9 kph)
- 10SM
01:55
Mostly Cloudy
Light Rain
55°F / 13°C 55°F / 13°C 100% N/A SSE 6.9 mph
(SSE 11 kph)
0.02 in
(0.51 mm)
10SM
01:35
Overcast
Light Rain
55°F / 13°C 55°F / 13°C 100% 29.77 in
(1008 mb)
S 6.9 mph
(S 11 kph)
0.01 in
(0.25 mm)
10SM
01:15
Mostly Cloudy
Rain
55°F / 13°C 55°F / 13°C 100% 29.77 in
(1008 mb)
S 8.1 mph
(S 13 kph)
- 10SM
00:55
Overcast
Drizzle
55°F / 13°C 55°F / 13°C 100% 29.77 in
(1008 mb)
S 8.1 mph
(S 13 kph)
0.01 in
(0.25 mm)
7SM
00:35
Overcast
Drizzle
55°F / 13°C 55°F / 13°C 100% 29.77 in
(1008 mb)
S 6.9 mph
(S 11 kph)
0.01 in
(0.25 mm)
10SM
00:15
Overcast
Rain
55°F / 13°C 55°F / 13°C 100% 29.77 in
(1008 mb)
S 6.9 mph
(S 11 kph)
0.01 in
(0.25 mm)
10SM
Time Weather Temperature Dewpoint Humidity Pressure Winds Precip Visibility


Weather for websites

WeatherForYou.com, LLC is not responsible for any damages or problems caused by this service. Current weather conditions are obtained from the closest station including government and personal stations which may have varying degrees of accuracy. Weather forecasts are derived from the NOAA NDFD. Like all things, this site belongs to Jesus Christ... He just trusts me to maintain it. If you have any questions or comments email webmaster@weatherforyou.com

Copyright © 2014, WeatherForYou.com LLC. All rights reserved.